Location: Caltech
(34.1382°N, 118.1253°W)
Time: 14:47:48
(UTC-07:00)

ADEOS II - Visible Passes

Search period start: 31 August 2015 00:00
Search period end: 10 September 2015 00:00
Orbit: 800 x 803 km, 98.3° (Epoch: 30 August)

Date Brightness Start Highest point End Pass type
(mag) Time Alt. Az. Time Alt. Az. Time Alt. Az.
31 Aug 4.2 05:15:04 10° NE 05:19:29 28° E 05:24:00 10° SSE visible
01 Sep 4.9 04:50:07 10° ENE 04:52:58 15° E 04:56:05 10° SE visible
02 Sep 2.2 06:01:39 10° NNE 06:06:56 85° E 06:12:12 10° SSW visible
03 Sep 3.3 05:35:37 10° NNE 05:40:39 46° E 05:45:42 10° S visible
04 Sep 4.4 05:10:01 10° NE 05:14:15 25° E 05:18:36 10° SSE visible
05 Sep 5.0 04:45:20 10° ENE 04:47:43 13° E 04:50:24 10° ESE visible
06 Sep 2.4 05:56:27 10° NNE 06:01:44 77° E 06:06:59 10° S visible
07 Sep 3.5 05:30:30 10° NNE 05:35:26 41° E 05:40:23 10° SSE visible
08 Sep 4.5 05:04:59 10° NE 05:09:00 23° E 05:13:09 10° SSE visible
09 Sep 5.1 04:40:41 10° ENE 04:42:25 12° E 04:44:33 10° ESE visible
